QPF
0.01 0.00 0.00 0.00 0.00 0.00 0.00 0.01 0.02 0.02 0.03 0.03 0.01 0.01 0.02 0.03 0.02 0.01 0.03 0.06 0.07 0.05 0.05 0.03 0.02 0.01 0.02 0.02 0.02 0.02 0.02 0.03 0.03 0.03 0.03 0.04 0.06 0.04 0.04 0.04 0.05 0.06 0.06 0.06
0.00 0.00 0.00 0.00 0.00 0.00 0.00 0.01 0.01 0.01 0.02 0.01 0.01 0.00 0.01 0.02 0.02 0.02 0.03 0.02 0.04 0.06 0.07 0.04 0.02 0.02 0.02 0.02 0.02 0.02 0.03 0.03 0.02 0.02 0.03 0.04 0.05 0.04 0.05 0.05 0.05 0.05 0.05 0.06
0.02 0.01 0.01 0.02 0.01 0.01 0.01 0.01 0.01 0.02 0.02 0.01 0.01 0.00 0.01 0.01 0.01 0.02 0.02 0.03 0.06 0.10 0.06 0.03 0.03 0.02 0.02 0.02 0.01 0.02 0.03 0.02 0.02 0.03 0.04 0.05 0.05 0.05 0.04 0.04 0.05 0.05 0.05 0.07
0.02 0.02 0.03 0.02 0.01 0.01 0.01 0.01 0.02 0.02 0.02 0.01 0.01 0.01 0.01 0.01 0.01 0.02 0.02 0.05 0.07 0.03 0.02 0.02 0.02 0.02 0.02 0.02 0.02 0.03 0.02 0.02 0.02 0.04 0.05 0.05 0.06 0.06 0.05 0.05 0.05 0.06 0.06 0.07
0.03 0.04 0.03 0.02 0.00 0.00 0.01 0.03 0.02 0.02 0.02 0.01 0.00 0.01 0.01 0.01 0.02 0.02 0.03 0.04 0.04 0.03 0.02 0.01 0.01 0.02 0.03 0.03 0.03 0.03 0.02 0.02 0.02 0.03 0.04 0.04 0.04 0.05 0.05 0.05 0.06 0.06 0.05 0.05
0.03 0.03 0.04 0.03 0.00 0.00 0.02 0.04 0.01 0.02 0.02 0.01 0.01 0.03 0.04 0.02 0.02 0.02 0.02 0.02 0.03 0.03 0.03 0.02 0.02 0.02 0.03 0.03 0.04 0.04 0.03 0.02 0.02 0.03 0.04 0.03 0.04 0.04 0.04 0.05 0.06 0.04 0.03 0.04
0.04 0.04 0.03 0.01 0.01 0.01 0.03 0.03 0.01 0.02 0.01 0.01 0.01 0.02 0.03 0.01 0.02 0.01 0.01 0.02 0.02 0.02 0.02 0.02 0.02 0.02 0.03 0.04 0.05 0.04 0.03 0.03 0.03 0.05 0.04 0.04 0.03 0.03 0.03 0.03 0.04 0.04 0.04 0.04
0.04 0.05 0.04 0.01 0.01 0.01 0.03 0.03 0.03 0.03 0.03 0.02 0.01 0.01 0.01 0.02 0.01 0.01 0.02 0.02 0.02 0.02 0.03 0.02 0.02 0.03 0.04 0.05 0.05 0.04 0.04 0.04 0.04 0.04 0.03 0.02 0.03 0.03 0.03 0.03 0.04 0.04 0.04 0.05
0.03 0.04 0.02 0.01 0.01 0.01 0.02 0.02 0.03 0.02 0.01 0.01 0.01 0.01 0.01 0.01 0.01 0.01 0.02 0.03 0.03 0.03 0.03 0.02 0.02 0.03 0.03 0.04 0.03 0.03 0.04 0.03 0.03 0.02 0.02 0.02 0.03 0.03 0.03 0.04 0.04 0.04 0.04 0.04
0.01 0.01 0.00 0.00 0.00 0.00 0.00 0.01 0.01 0.01 0.01 0.01 0.01 0.01 0.01 0.01 0.02 0.02 0.03 0.03 0.04 0.04 0.03 0.02 0.01 0.01 0.03 0.04 0.03 0.03 0.03 0.04 0.03 0.02 0.02 0.02 0.03 0.03 0.03 0.03 0.03 0.02 0.02 0.03
0.03 0.01 0.00 0.00 0.00 0.00 0.00 0.00 0.00 0.00 0.00 0.01 0.02 0.01 0.01 0.02 0.02 0.02 0.03 0.03 0.02 0.02 0.02 0.01 0.01 0.02 0.03 0.03 0.02 0.03 0.02 0.03 0.03 0.02 0.02 0.02 0.03 0.03 0.03 0.02 0.02 0.01 0.01 0.01
0.02 0.01 0.01 0.00 0.00 0.00 0.00 0.00 0.00 0.00 0.01 0.01 0.01 0.02 0.02 0.02 0.02 0.02 0.03 0.03 0.02 0.02 0.01 0.01 0.01 0.02 0.03 0.03 0.03 0.03 0.02 0.03 0.03 0.03 0.03 0.04 0.04 0.03 0.02 0.01 0.01 0.00 0.00 0.01
0.00 0.00 0.00 0.00 0.00 0.00 0.00 0.00 0.00 0.00 0.01 0.01 0.01 0.01 0.01 0.01 0.01 0.02 0.03 0.03 0.02 0.02 0.01 0.01 0.02 0.02 0.02 0.02 0.03 0.03 0.02 0.03 0.03 0.04 0.04 0.04 0.04 0.04 0.03 0.01 0.00 0.00 0.00 0.00
0.00 0.00 0.00 0.00 0.00 0.00 0.00 0.00 0.00 0.00 0.00 0.00 0.00 0.00 0.01 0.01 0.01 0.02 0.03 0.03 0.02 0.02 0.01 0.01 0.02 0.02 0.02 0.02 0.02 0.02 0.03 0.02 0.03 0.04 0.04 0.03 0.03 0.03 0.04 0.05 0.03 0.02 0.01 0.01
0.00 0.00 0.00 0.00 0.00 0.00 0.00 0.00 0.00 0.00 0.00 0.00 0.00 0.00 0.00 0.01 0.01 0.02 0.03 0.03 0.02 0.02 0.01 0.02 0.02 0.03 0.02 0.02 0.02 0.02 0.02 0.02 0.03 0.03 0.03 0.02 0.02 0.02 0.03 0.04 0.04 0.03 0.03 0.02
0.00 0.00 0.00 0.00 0.00 0.00 0.00 0.00 0.00 0.00 0.00 0.00 0.00 0.00 0.01 0.01 0.01 0.02 0.04 0.03 0.02 0.02 0.03 0.03 0.04 0.03 0.01 0.01 0.01 0.02 0.02 0.01 0.02 0.02 0.02 0.03 0.03 0.03 0.02 0.02 0.02 0.03 0.03 0.03
0.00 0.00 0.01 0.01 0.00 0.00 0.00 0.00 0.00 0.00 0.00 0.00 0.00 0.00 0.01 0.00 0.01 0.02 0.04 0.03 0.02 0.03 0.04 0.05 0.03 0.01 0.01 0.00 0.01 0.02 0.02 0.02 0.02 0.01 0.02 0.02 0.03 0.03 0.01 0.02 0.03 0.03 0.03 0.03
0.00 0.00 0.01 0.01 0.01 0.00 0.00 0.00 0.00 0.00 0.00 0.00 0.00 0.00 0.00 0.00 0.01 0.01 0.02 0.03 0.03 0.05 0.06 0.05 0.02 0.01 0.01 0.01 0.01 0.01 0.01 0.01 0.02 0.02 0.01 0.02 0.02 0.02 0.02 0.04 0.05 0.05 0.04 0.04
0.00 0.00 0.00 0.00 0.00 0.00 0.00 0.00 0.00 0.00 0.00 0.00 0.01 0.01 0.01 0.01 0.01 0.02 0.03 0.03 0.05 0.06 0.05 0.02 0.01 0.01 0.01 0.01 0.00 0.01 0.01 0.02 0.02 0.02 0.02 0.02 0.02 0.02 0.02 0.04 0.06 0.05 0.04 0.03
0.00 0.00 0.00 0.00 0.00 0.00 0.00 0.00 0.00 0.00 0.00 0.00 0.01 0.01 0.01 0.01 0.01 0.02 0.03 0.05 0.06 0.05 0.02 0.01 0.01 0.02 0.01 0.01 0.00 0.01 0.01 0.02 0.02 0.02 0.02 0.02 0.02 0.02 0.02 0.02 0.03 0.03 0.03 0.03
0.00 0.00 0.00 0.00 0.00 0.00 0.00 0.00 0.01 0.01 0.01 0.01 0.01 0.01 0.02 0.02 0.02 0.02 0.04 0.05 0.05 0.03 0.02 0.01 0.01 0.02 0.01 0.01 0.01 0.01 0.01 0.01 0.01 0.02 0.01 0.01 0.01 0.01 0.01 0.01 0.01 0.02 0.02 0.02
0.01 0.01 0.01 0.00 0.00 0.00 0.00 0.01 0.01 0.02 0.01 0.01 0.01 0.01 0.02 0.02 0.02 0.03 0.04 0.04 0.03 0.02 0.02 0.01 0.01 0.01 0.01 0.01 0.01 0.01 0.01 0.01 0.00 0.00 0.00 0.01 0.01 0.01 0.01 0.01 0.01 0.02 0.02 0.02
0.02 0.01 0.01 0.00 0.00 0.00 0.01 0.01 0.02 0.01 0.01 0.01 0.01 0.01 0.02 0.03 0.03 0.04 0.04 0.03 0.03 0.02 0.01 0.01 0.01 0.01 0.01 0.01 0.01 0.01 0.00 0.00 0.00 0.00 0.00 0.00 0.00 0.01 0.01 0.02 0.02 0.02 0.03 0.03
0.01 0.01 0.00 0.00 0.00 0.01 0.01 0.02 0.01 0.01 0.01 0.02 0.02 0.02 0.02 0.03 0.04 0.04 0.04 0.03 0.03 0.02 0.01 0.01 0.00 0.00 0.01 0.01 0.01 0.01 0.00 0.00 0.00 0.00 0.00 0.00 0.00 0.01 0.01 0.01 0.02 0.02 0.02 0.02
0.00 0.01 0.01 0.01 0.01 0.02 0.02 0.01 0.01 0.02 0.03 0.03 0.03 0.03 0.03 0.03 0.02 0.01 0.02 0.03 0.03 0.02 0.01 0.01 0.01 0.01 0.00 0.01 0.01 0.01 0.00 0.00 0.01 0.00 0.00 0.01 0.01 0.01 0.01 0.01 0.02 0.02 0.02 0.02
0.01 0.01 0.01 0.01 0.02 0.02 0.01 0.01 0.02 0.03 0.04 0.05 0.05 0.05 0.04 0.03 0.02 0.01 0.02 0.03 0.03 0.02 0.01 0.01 0.01 0.01 0.01 0.01 0.01 0.00 0.00 0.00 0.00 0.01 0.01 0.01 0.01 0.01 0.01 0.01 0.01 0.01 0.02 0.02
0.01 0.01 0.01 0.01 0.01 0.02 0.01 0.02 0.02 0.03 0.04 0.04 0.04 0.03 0.02 0.02 0.01 0.01 0.02 0.04 0.03 0.02 0.01 0.01 0.02 0.01 0.01 0.01 0.01 0.00 0.00 0.01 0.01 0.01 0.01 0.01 0.01 0.01 0.01 0.00 0.01 0.01 0.01 0.01
MSLP
1016.40 1016.89 1017.51 1018.21 1018.92 1019.55 1019.98 1020.16 1020.04 1019.60 1018.89 1017.97 1016.91 1015.83 1014.80 1013.88 1013.10 1012.46 1011.94 1011.51 1011.12 1010.73 1010.34 1009.95 1009.57 1009.22 1008.94 1008.73 1008.61 1008.54 1008.50 1008.47 1008.39 1008.26 1008.07 1007.81 1007.52 1007.23 1006.96 1006.75 1006.59 1006.47 1006.38 1006.26
1016.83 1017.55 1018.37 1019.23 1020.06 1020.75 1021.22 1021.40 1021.26 1020.80 1020.07 1019.12 1018.05 1016.93 1015.85 1014.85 1013.97 1013.20 1012.53 1011.93 1011.38 1010.84 1010.32 1009.83 1009.39 1009.02 1008.73 1008.53 1008.42 1008.37 1008.35 1008.31 1008.23 1008.09 1007.88 1007.62 1007.33 1007.06 1006.84 1006.68 1006.60 1006.56 1006.56 1006.53
1017.24 1018.18 1019.19 1020.21 1021.15 1021.91 1022.42 1022.63 1022.49 1022.04 1021.31 1020.36 1019.27 1018.12 1016.99 1015.91 1014.92 1014.02 1013.19 1012.43 1011.72 1011.04 1010.42 1009.85 1009.36 1008.97 1008.68 1008.51 1008.42 1008.38 1008.36 1008.32 1008.23 1008.07 1007.84 1007.58 1007.30 1007.05 1006.87 1006.77 1006.75 1006.79 1006.86 1006.90
1017.84 1018.93 1020.07 1021.18 1022.18 1022.97 1023.49 1023.69 1023.56 1023.11 1022.39 1021.44 1020.35 1019.19 1018.02 1016.88 1015.80 1014.78 1013.83 1012.93 1012.09 1011.31 1010.59 1009.97 1009.45 1009.05 1008.78 1008.62 1008.55 1008.52 1008.50 1008.45 1008.35 1008.17 1007.94 1007.67 1007.40 1007.18 1007.03 1006.98 1007.01 1007.12 1007.24 1007.35
1018.72 1019.87 1021.03 1022.13 1023.09 1023.83 1024.30 1024.46 1024.30 1023.84 1023.12 1022.19 1021.12 1019.97 1018.80 1017.63 1016.49 1015.40 1014.36 1013.37 1012.43 1011.57 1010.80 1010.14 1009.60 1009.21 1008.95 1008.80 1008.74 1008.72 1008.70 1008.64 1008.53 1008.34 1008.11 1007.85 1007.60 1007.41 1007.30 1007.29 1007.37 1007.52 1007.69 1007.83
1019.89 1020.98 1022.04 1023.02 1023.83 1024.43 1024.77 1024.83 1024.60 1024.11 1023.40 1022.50 1021.47 1020.37 1019.23 1018.08 1016.94 1015.82 1014.74 1013.69 1012.71 1011.80 1010.99 1010.30 1009.76 1009.36 1009.10 1008.96 1008.90 1008.89 1008.87 1008.81 1008.70 1008.52 1008.30 1008.07 1007.86 1007.71 1007.65 1007.68 1007.80 1007.97 1008.16 1008.31
1021.24 1022.16 1023.01 1023.75 1024.33 1024.71 1024.86 1024.77 1024.45 1023.93 1023.22 1022.37 1021.42 1020.39 1019.33 1018.24 1017.14 1016.04 1014.95 1013.90 1012.88 1011.95 1011.12 1010.41 1009.85 1009.44 1009.18 1009.04 1008.98 1008.96 1008.95 1008.90 1008.80 1008.65 1008.47 1008.29 1008.13 1008.04 1008.03 1008.11 1008.26 1008.45 1008.65 1008.79
1022.58 1023.25 1023.81 1024.25 1024.54 1024.65 1024.58 1024.34 1023.93 1023.37 1022.69 1021.91 1021.05 1020.14 1019.18 1018.19 1017.16 1016.11 1015.06 1014.00 1012.98 1012.03 1011.18 1010.45 1009.87 1009.44 1009.16 1009.00 1008.93 1008.92 1008.91 1008.89 1008.82 1008.73 1008.61 1008.49 1008.41 1008.38 1008.43 1008.55 1008.73 1008.94 1009.12 1009.25
1023.71 1024.09 1024.35 1024.47 1024.46 1024.31 1024.04 1023.65 1023.16 1022.60 1021.97 1021.28 1020.55 1019.76 1018.93 1018.05 1017.12 1016.13 1015.11 1014.07 1013.05 1012.08 1011.20 1010.43 1009.82 1009.36 1009.04 1008.86 1008.78 1008.77 1008.78 1008.79 1008.78 1008.75 1008.70 1008.67 1008.67 1008.72 1008.82 1008.99 1009.19 1009.39 1009.56 1009.65
1024.49 1024.60 1024.56 1024.40 1024.13 1023.77 1023.34 1022.86 1022.34 1021.81 1021.25 1020.68 1020.08 1019.43 1018.73 1017.96 1017.12 1016.19 1015.20 1014.17 1013.14 1012.14 1011.22 1010.41 1009.74 1009.23 1008.88 1008.67 1008.57 1008.56 1008.58 1008.63 1008.69 1008.73 1008.77 1008.83 1008.91 1009.03 1009.19 1009.38 1009.59 1009.78 1009.92 1009.96
1024.86 1024.73 1024.47 1024.10 1023.65 1023.15 1022.63 1022.12 1021.63 1021.16 1020.71 1020.26 1019.79 1019.28 1018.70 1018.02 1017.25 1016.37 1015.40 1014.36 1013.30 1012.26 1011.29 1010.42 1009.70 1009.13 1008.73 1008.48 1008.36 1008.34 1008.39 1008.48 1008.59 1008.71 1008.83 1008.97 1009.12 1009.30 1009.50 1009.71 1009.91 1010.07 1010.16 1010.15
1024.84 1024.56 1024.16 1023.66 1023.13 1022.58 1022.06 1021.58 1021.16 1020.79 1020.45 1020.12 1019.77 1019.37 1018.88 1018.28 1017.55 1016.69 1015.72 1014.67 1013.58 1012.49 1011.46 1010.53 1009.73 1009.10 1008.64 1008.34 1008.20 1008.17 1008.23 1008.35 1008.51 1008.69 1008.89 1009.09 1009.30 1009.51 1009.73 1009.93 1010.10 1010.22 1010.26 1010.20
1024.57 1024.21 1023.75 1023.23 1022.69 1022.17 1021.70 1021.30 1020.98 1020.71 1020.48 1020.26 1020.01 1019.69 1019.26 1018.70 1018.00 1017.15 1016.17 1015.09 1013.96 1012.82 1011.73 1010.74 1009.87 1009.17 1008.65 1008.30 1008.11 1008.06 1008.12 1008.27 1008.46 1008.69 1008.94 1009.19 1009.43 1009.66 1009.88 1010.05 1010.18 1010.25 1010.23 1010.10
1024.20 1023.83 1023.38 1022.89 1022.41 1021.97 1021.59 1021.29 1021.06 1020.89 1020.75 1020.60 1020.42 1020.14 1019.76 1019.22 1018.53 1017.68 1016.70 1015.60 1014.44 1013.26 1012.12 1011.06 1010.13 1009.36 1008.77 1008.36 1008.12 1008.04 1008.08 1008.22 1008.44 1008.69 1008.97 1009.25 1009.51 1009.75 1009.94 1010.09 1010.16 1010.17 1010.08 1009.90
1023.87 1023.53 1023.14 1022.72 1022.32 1021.97 1021.68 1021.47 1021.32 1021.21 1021.13 1021.03 1020.88 1020.63 1020.26 1019.74 1019.06 1018.23 1017.25 1016.15 1014.97 1013.77 1012.60 1011.49 1010.50 1009.66 1008.99 1008.51 1008.21 1008.07 1008.08 1008.21 1008.42 1008.69 1008.99 1009.28 1009.55 1009.78 1009.95 1010.06 1010.09 1010.03 1009.89 1009.66
1023.67 1023.39 1023.06 1022.73 1022.41 1022.13 1021.91 1021.75 1021.64 1021.56 1021.50 1021.41 1021.26 1021.03 1020.67 1020.18 1019.53 1018.72 1017.77 1016.70 1015.54 1014.34 1013.15 1012.00 1010.95 1010.04 1009.29 1008.73 1008.35 1008.15 1008.11 1008.20 1008.40 1008.67 1008.98 1009.29 1009.57 1009.79 1009.95 1010.02 1010.01 1009.91 1009.71 1009.44
1023.60 1023.38 1023.13 1022.86 1022.60 1022.37 1022.18 1022.03 1021.91 1021.82 1021.74 1021.64 1021.49 1021.26 1020.93 1020.47 1019.87 1019.13 1018.24 1017.23 1016.12 1014.94 1013.75 1012.58 1011.48 1010.50 1009.66 1009.00 1008.53 1008.25 1008.15 1008.20 1008.38 1008.64 1008.96 1009.28 1009.58 1009.81 1009.97 1010.03 1009.99 1009.86 1009.63 1009.33
1023.64 1023.48 1023.28 1023.06 1022.83 1022.60 1022.39 1022.21 1022.05 1021.92 1021.79 1021.66 1021.51 1021.29 1021.00 1020.61 1020.10 1019.45 1018.66 1017.74 1016.70 1015.57 1014.39 1013.21 1012.06 1011.00 1010.07 1009.31 1008.74 1008.37 1008.19 1008.19 1008.34 1008.60 1008.93 1009.28 1009.60 1009.87 1010.04 1010.11 1010.07 1009.93 1009.69 1009.38
1023.71 1023.61 1023.45 1023.24 1023.00 1022.74 1022.48 1022.24 1022.01 1021.82 1021.64 1021.48 1021.32 1021.15 1020.92 1020.62 1020.21 1019.69 1019.03 1018.22 1017.27 1016.21 1015.06 1013.86 1012.68 1011.54 1010.51 1009.64 1008.96 1008.49 1008.23 1008.17 1008.29 1008.55 1008.89 1009.28 1009.65 1009.96 1010.18 1010.29 1010.27 1010.14 1009.90 1009.59
1023.76 1023.70 1023.56 1023.34 1023.07 1022.76 1022.43 1022.11 1021.81 1021.55 1021.33 1021.15 1021.01 1020.88 1020.73 1020.54 1020.26 1019.88 1019.36 1018.67 1017.83 1016.84 1015.72 1014.52 1013.29 1012.08 1010.95 1009.97 1009.18 1008.61 1008.26 1008.14 1008.23 1008.48 1008.85 1009.28 1009.70 1010.08 1010.36 1010.53 1010.55 1010.46 1010.24 1009.95
1023.74 1023.70 1023.57 1023.34 1023.03 1022.66 1022.26 1021.87 1021.50 1021.18 1020.93 1020.74 1020.63 1020.55 1020.50 1020.42 1020.28 1020.04 1019.65 1019.09 1018.35 1017.42 1016.34 1015.13 1013.86 1012.59 1011.37 1010.28 1009.38 1008.70 1008.27 1008.09 1008.14 1008.38 1008.77 1009.24 1009.73 1010.18 1010.54 1010.78 1010.88 1010.84 1010.67 1010.40
1023.63 1023.61 1023.48 1023.23 1022.88 1022.46 1022.01 1021.55 1021.13 1020.78 1020.51 1020.33 1020.25 1020.24 1020.27 1020.30 1020.28 1020.16 1019.89 1019.44 1018.78 1017.92 1016.87 1015.66 1014.36 1013.02 1011.72 1010.54 1009.54 1008.77 1008.25 1008.01 1008.02 1008.24 1008.65 1009.15 1009.70 1010.22 1010.67 1010.99 1011.18 1011.21 1011.11 1010.90
1023.44 1023.43 1023.28 1023.01 1022.64 1022.19 1021.70 1021.21 1020.77 1020.39 1020.12 1019.96 1019.92 1019.96 1020.06 1020.18 1020.25 1020.22 1020.05 1019.69 1019.10 1018.29 1017.26 1016.07 1014.74 1013.36 1012.01 1010.75 1009.66 1008.81 1008.21 1007.90 1007.85 1008.05 1008.45 1008.98 1009.57 1010.16 1010.68 1011.10 1011.39 1011.52 1011.51 1011.38
1023.16 1023.14 1022.99 1022.71 1022.33 1021.86 1021.37 1020.87 1020.42 1020.06 1019.80 1019.66 1019.64 1019.72 1019.87 1020.04 1020.17 1020.21 1020.10 1019.79 1019.26 1018.49 1017.50 1016.32 1015.00 1013.61 1012.22 1010.91 1009.76 1008.83 1008.16 1007.78 1007.68 1007.83 1008.20 1008.73 1009.34 1009.98 1010.58 1011.09 1011.48 1011.73 1011.83 1011.81
1022.80 1022.77 1022.61 1022.33 1021.95 1021.49 1021.01 1020.54 1020.11 1019.76 1019.53 1019.41 1019.41 1019.51 1019.67 1019.86 1020.02 1020.08 1020.01 1019.74 1019.25 1018.53 1017.59 1016.44 1015.15 1013.77 1012.38 1011.06 1009.88 1008.90 1008.17 1007.71 1007.54 1007.63 1007.94 1008.44 1009.05 1009.71 1010.37 1010.96 1011.45 1011.82 1012.05 1012.16
1022.33 1022.28 1022.11 1021.85 1021.49 1021.08 1020.63 1020.20 1019.82 1019.50 1019.29 1019.18 1019.19 1019.29 1019.45 1019.62 1019.78 1019.85 1019.79 1019.55 1019.10 1018.43 1017.55 1016.47 1015.24 1013.92 1012.57 1011.26 1010.08 1009.07 1008.29 1007.77 1007.51 1007.52 1007.76 1008.19 1008.77 1009.42 1010.09 1010.74 1011.32 1011.81 1012.17 1012.42
1021.75 1021.68 1021.52 1021.27 1020.96 1020.60 1020.22 1019.85 1019.52 1019.25 1019.06 1018.97 1018.97 1019.04 1019.18 1019.33 1019.45 1019.51 1019.45 1019.24 1018.84 1018.24 1017.44 1016.46 1015.34 1014.11 1012.84 1011.60 1010.44 1009.43 1008.62 1008.03 1007.69 1007.60 1007.74 1008.08 1008.57 1009.18 1009.84 1010.51 1011.15 1011.73 1012.22 1012.61
Thickness
5736 5744 5747 5744 5743 5743 5735 5729 5716 5712 5710 5709 5710 5709 5707 5704 5699 5694 5688 5685 5681 5677 5673 5670 5667 5665 5662 5660 5658 5656 5653 5651 5649 5649 5648 5646 5644 5642 5640 5638 5637 5636 5635 5634
5730 5741 5744 5738 5740 5739 5732 5728 5722 5715 5708 5712 5712 5709 5703 5698 5693 5687 5683 5680 5677 5673 5669 5665 5663 5660 5658 5655 5654 5652 5649 5648 5647 5645 5643 5641 5640 5638 5636 5634 5632 5631 5629 5627
5717 5733 5733 5722 5731 5731 5727 5725 5718 5706 5705 5710 5705 5700 5696 5692 5688 5683 5679 5675 5671 5667 5664 5662 5660 5657 5654 5652 5651 5648 5645 5644 5643 5642 5639 5638 5636 5633 5630 5628 5627 5625 5624 5622
5717 5716 5699 5720 5740 5736 5724 5720 5719 5712 5708 5705 5701 5698 5696 5691 5685 5680 5676 5672 5667 5664 5661 5659 5658 5655 5653 5650 5647 5645 5642 5640 5639 5637 5635 5633 5630 5626 5624 5623 5621 5620 5619 5617
5708 5703 5707 5722 5729 5726 5714 5706 5713 5707 5704 5702 5700 5694 5688 5688 5683 5678 5673 5669 5665 5662 5659 5656 5654 5652 5649 5646 5644 5641 5639 5637 5635 5633 5630 5627 5624 5621 5620 5618 5617 5616 5614 5613
5704 5694 5690 5709 5726 5730 5716 5695 5705 5703 5696 5693 5690 5676 5675 5681 5679 5675 5671 5667 5663 5660 5657 5653 5650 5649 5645 5642 5640 5637 5636 5634 5632 5630 5627 5623 5620 5618 5616 5615 5614 5612 5611 5609
5699 5694 5701 5716 5724 5721 5691 5684 5698 5697 5691 5685 5679 5674 5674 5676 5673 5671 5667 5665 5662 5657 5653 5649 5648 5645 5641 5640 5637 5636 5635 5632 5630 5627 5624 5621 5618 5616 5614 5612 5611 5609 5606 5605
5699 5689 5691 5714 5713 5698 5689 5696 5695 5692 5687 5682 5677 5676 5674 5672 5668 5666 5663 5660 5658 5653 5649 5647 5645 5642 5639 5637 5637 5635 5633 5630 5627 5625 5622 5620 5616 5614 5613 5610 5608 5606 5604 5601
5700 5696 5706 5713 5706 5703 5701 5694 5691 5688 5685 5680 5674 5671 5670 5667 5664 5662 5659 5656 5653 5650 5647 5645 5643 5640 5636 5636 5635 5633 5630 5628 5625 5623 5621 5618 5615 5613 5611 5609 5606 5604 5602 5598
5701 5703 5707 5708 5706 5703 5699 5693 5691 5687 5682 5678 5672 5669 5666 5663 5660 5657 5655 5653 5650 5647 5644 5642 5641 5639 5636 5635 5634 5631 5627 5625 5623 5621 5619 5617 5614 5612 5609 5606 5603 5601 5599 5595
5695 5700 5702 5702 5700 5698 5694 5692 5688 5684 5681 5676 5671 5667 5663 5660 5657 5654 5652 5650 5648 5644 5641 5640 5639 5637 5636 5634 5631 5628 5625 5623 5621 5620 5618 5615 5612 5608 5606 5602 5599 5596 5595 5592
5688 5695 5691 5691 5695 5694 5688 5684 5682 5677 5674 5673 5669 5664 5661 5657 5654 5651 5648 5647 5644 5641 5639 5637 5636 5634 5634 5632 5629 5625 5622 5621 5620 5618 5617 5615 5613 5609 5604 5601 5598 5595 5592 5589
5697 5697 5694 5692 5690 5688 5683 5680 5678 5674 5670 5668 5665 5662 5657 5654 5651 5648 5646 5643 5641 5638 5637 5635 5633 5632 5632 5630 5627 5624 5620 5619 5618 5617 5616 5615 5614 5611 5607 5603 5599 5596 5593 5590
5696 5691 5685 5684 5682 5681 5678 5676 5674 5670 5668 5665 5661 5658 5654 5651 5648 5645 5642 5640 5639 5636 5635 5633 5631 5630 5630 5629 5626 5622 5620 5619 5617 5616 5616 5615 5614 5613 5611 5608 5604 5601 5596 5592
5689 5686 5682 5680 5678 5676 5673 5670 5666 5663 5661 5659 5657 5653 5650 5646 5644 5642 5641 5639 5636 5634 5632 5631 5629 5628 5629 5627 5624 5621 5619 5618 5617 5616 5616 5615 5615 5614 5613 5611 5607 5604 5601 5596
5681 5680 5677 5673 5670 5668 5666 5663 5659 5657 5656 5653 5651 5648 5646 5644 5642 5640 5638 5635 5632 5630 5629 5628 5627 5627 5627 5625 5622 5620 5619 5616 5615 5615 5615 5614 5615 5613 5612 5611 5608 5605 5602 5598
5669 5666 5666 5664 5662 5661 5660 5658 5656 5654 5652 5649 5646 5645 5643 5641 5638 5636 5634 5633 5631 5629 5628 5626 5625 5626 5625 5624 5622 5620 5621 5618 5615 5615 5614 5614 5613 5612 5611 5609 5608 5605 5602 5599
5668 5665 5663 5660 5659 5657 5656 5655 5653 5650 5647 5646 5644 5641 5638 5635 5633 5631 5631 5630 5628 5627 5626 5625 5624 5623 5623 5623 5621 5620 5620 5619 5617 5615 5613 5613 5612 5612 5611 5609 5607 5605 5603 5601
5662 5660 5658 5656 5655 5653 5650 5649 5648 5646 5644 5642 5639 5635 5633 5631 5630 5629 5628 5626 5624 5622 5623 5623 5620 5620 5622 5621 5619 5619 5619 5618 5616 5615 5614 5612 5612 5612 5610 5609 5607 5605 5603 5601
5654 5653 5651 5650 5649 5646 5644 5643 5642 5640 5638 5636 5633 5630 5627 5627 5627 5625 5623 5621 5621 5621 5621 5620 5619 5620 5620 5620 5617 5619 5619 5618 5617 5616 5615 5614 5612 5610 5610 5608 5607 5604 5602 5600
5641 5642 5642 5641 5640 5640 5638 5637 5634 5631 5630 5629 5626 5624 5623 5622 5622 5621 5619 5618 5619 5619 5618 5617 5618 5619 5619 5616 5615 5618 5619 5618 5617 5616 5614 5613 5611 5609 5608 5606 5605 5603 5601 5600
5630 5631 5630 5631 5631 5630 5630 5630 5628 5626 5624 5622 5622 5621 5620 5618 5618 5617 5616 5615 5616 5614 5616 5617 5618 5615 5615 5613 5616 5618 5618 5617 5617 5616 5614 5611 5609 5607 5605 5603 5602 5601 5600 5599
5619 5620 5620 5621 5621 5621 5622 5622 5622 5620 5618 5618 5617 5616 5615 5615 5615 5613 5611 5613 5614 5612 5613 5615 5613 5612 5611 5613 5616 5617 5617 5616 5615 5614 5612 5610 5608 5606 5604 5602 5601 5599 5598 5597
5611 5612 5613 5614 5614 5613 5612 5614 5615 5614 5614 5613 5614 5614 5613 5612 5613 5613 5613 5611 5610 5610 5612 5612 5610 5609 5608 5613 5615 5615 5615 5614 5613 5613 5611 5610 5608 5605 5603 5601 5599 5598 5596 5594
5604 5605 5606 5606 5605 5606 5607 5609 5609 5609 5610 5611 5611 5613 5613 5613 5612 5612 5612 5611 5610 5609 5611 5612 5609 5608 5610 5614 5615 5614 5614 5613 5612 5611 5610 5608 5606 5603 5601 5599 5597 5596 5594 5591
5596 5597 5599 5599 5599 5601 5602 5604 5605 5606 5607 5607 5608 5609 5610 5611 5611 5610 5610 5610 5610 5608 5610 5612 5612 5609 5611 5614 5614 5613 5612 5611 5610 5609 5607 5605 5604 5602 5599 5597 5595 5593 5591 5588
5592 5593 5594 5595 5597 5599 5599 5600 5600 5602 5603 5603 5603 5605 5606 5607 5607 5607 5607 5608 5608 5608 5609 5610 5612 5612 5612 5613 5613 5612 5611 5610 5608 5607 5605 5603 5601 5599 5597 5594 5592 5590 5587 5584